Flag for Germany Weather for the Past 2 Weeks in Garmisch-Partenkirchen, Bavaria, Germany

Now
63 °F

Scattered clouds.


Feels Like: 63 °F
Forecast: 33 / 61 °F
Wind: 5 mph from East

Location: Innsbruck-Flughafen

Current Time: Apr 29, 2016 at 6:19:05 PM

Latest Report: Apr 29, 2016 at 5:50 PM


Visibility: N/A

Pressure: 29.95 "Hg (27.58 "Hg at 699m altitude)

Humidity: 27%

Dew Point: 28 °F

Location of Garmisch-PartenkirchenLocation

Historic Weather in Garmisch-Partenkirchen — Graph

°F

Garmisch-Partenkirchen Temperature Yesterday

Maximum temperature yesterday: 50 °F (at 2:50 PM)
Minimum temperature yesterday: 28 °F (at 5:50 AM)
Average temperature yesterday: 41 °F

High & Low Weather Summary for the Past Weeks

 TemperatureHumidityPressure
High75 °F (Apr 21, 3:20 PM)100% (Apr 18, 6:50 AM)30.36 "Hg (Apr 18, 6:50 AM)
Low28 °F (Apr 28, 5:50 AM)24% (Apr 29, 4:50 PM)29.56 "Hg (Apr 26, 1:50 PM)
Average49 °F68%29.93 "Hg
* Reported Apr 14 4:20 PM — Apr 29 4:50 PM, Garmisch-Partenkirchen, Weather by CustomWeather, © 2016

Note: Actual official high and low records may vary slightly from our data, if they occured in-between our weather recording intervals... More about our weather records

Advertising

Garmisch-Partenkirchen Weather History for the Previous 24 Hours

Scroll right to see more
 ConditionsComfort  
Time TempWeatherWind HumidityBarometerVisibility
4:50 PM
Fri, Apr 29
64 °FScattered clouds.6 mph24%29.95 "HgN/A
4:20 PM64 °FPassing clouds.5 mph28%29.95 "HgN/A
3:50 PM64 °FPassing clouds.2 mph30%29.98 "HgN/A
3:20 PM63 °FPassing clouds.5 mph30%29.98 "HgN/A
2:50 PM61 °FPassing clouds.5 mph27%29.98 "HgN/A
2:20 PM61 °FPassing clouds.5 mph31%29.98 "HgN/A
1:50 PM59 °FPassing clouds.7 mph36%30.01 "HgN/A
1:20 PM57 °FPassing clouds.6 mph39%30.01 "HgN/A
12:50 PM55 °FPassing clouds.6 mph41%30.01 "HgN/A
12:20 PM54 °FPassing clouds.3 mph44%30.04 "HgN/A
11:50 AM52 °FPassing clouds.5 mph50%30.04 "HgN/A
11:20 AM50 °FPassing clouds.2 mph43%30.07 "HgN/A
10:50 AM48 °FPassing clouds.2 mph54%30.07 "HgN/A
9:50 AM45 °FPassing clouds.2 mph57%30.09 "HgN/A
9:20 AM41 °FPassing clouds.3 mph66%30.09 "HgN/A
8:50 AM39 °FPassing clouds.5 mph75%30.09 "HgN/A
8:20 AM37 °FPassing clouds.5 mph75%30.09 "HgN/A
7:50 AM36 °FPassing clouds.2 mph81%30.09 "HgN/A
6:50 AM32 °FPassing clouds.1 mph87%30.09 "HgN/A
6:20 AM30 °FPassing clouds.2 mph93%30.09 "HgN/A
5:50 AM30 °FPassing clouds.2 mph93%30.09 "HgN/A
5:20 AM32 °FChilly.2 mph87%30.09 "HgN/A
4:20 AM32 °FPassing clouds.2 mph87%30.07 "HgN/A
3:50 AM32 °FChilly.2 mph87%30.07 "HgN/A
2:50 AM32 °FChilly.2 mph87%30.07 "HgN/A
2:20 AM34 °FChilly.1 mph81%30.07 "HgN/A
1:50 AM34 °FChilly.1 mph81%30.07 "HgN/A
1:20 AM34 °FChilly.1 mph81%30.07 "HgN/A
12:50 AM36 °FChilly.2 mph75%30.07 "HgN/A
12:20 AM36 °FChilly.1 mph75%30.07 "HgN/A
11:50 PM
Thu, Apr 28
36 °FChilly.2 mph81%30.04 "HgN/A
10:50 PM39 °FPassing clouds.3 mph70%30.04 "HgN/A
10:20 PM39 °FPassing clouds.2 mph70%30.04 "HgN/A
9:50 PM41 °FPassing clouds.1 mph66%30.04 "HgN/A
9:20 PM43 °FPartly sunny.1 mph61%30.04 "HgN/A
8:50 PM45 °FPartly sunny.6 mph53%30.01 "HgN/A
8:20 PM46 °FScattered clouds.8 mph50%30.01 "HgN/A
7:50 PM46 °FScattered clouds.8 mph50%30.01 "HgN/A
7:20 PM48 °FBroken clouds.6 mph43%29.98 "HgN/A
6:50 PM48 °FBroken clouds.6 mph46%29.98 "HgN/A
6:20 PM48 °FBroken clouds.6 mph43%29.98 "HgN/A
Weather by CustomWeather, © 2016

See weather overviewHow to use our weather pages